Vertical_Velocity
-2 -3 0 -3 -3 -3 -3 1 -1 1 0 -7 -2 -1 -1 0 -1 -2 -2 -5 -4 2 0 -1 1 0 -1 -3 0 4 1 -1 -0 -1 0 -0 -0 -1 -1 -1 -0 -2 -2 -1 -0 -1 -1 1 0 1 -1 -3 2 1
-2 -2 -1 -2 -3 -3 -3 0 -2 -1 5 -1 -1 -3 -3 -2 -4 -6 0 -4 1 -3 0 2 -1 -2 -1 -3 12 3 -1 -2 1 -1 2 0 -1 -0 -1 -2 -2 2 -1 -3 -3 -3 -0 1 -0 -0 -1 2 0 0
-2 -2 -1 -2 -3 -4 -2 -0 1 -4 -1 2 1 1 -0 -5 -1 -0 -5 -1 1 1 -3 1 2 0 -2 -2 -2 0 4 5 1 3 1 1 2 0 -1 -1 1 0 0 -1 -0 -1 -4 -1 -0 -1 -2 -3 -2 0
-1 -3 -1 -2 -4 -4 -1 -4 1 -4 -6 2 -1 0 -2 -0 2 -5 -5 1 1 3 -1 -2 1 -1 -0 0 0 2 3 2 0 -2 -1 1 2 -0 -0 1 1 2 -1 -2 -2 -1 -1 -2 -1 -2 -2 -3 -2 -1
-1 -2 -2 -3 -4 -5 0 -3 2 -2 -4 -3 1 2 -1 -0 -1 1 -1 2 -3 -5 -1 -2 0 -1 -1 -1 0 -0 0 -1 1 1 -1 1 -2 -2 0 -0 1 -2 -1 -1 1 1 0 2 -1 -0 -0 -2 1 -1
-1 -2 -2 -4 -2 -5 -2 -3 1 3 2 -6 -2 2 1 -0 -1 -5 -5 -8 -1 3 -1 -1 0 -1 -1 -0 -1 2 1 -1 -1 1 -0 1 -1 -3 -3 4 -2 -0 1 1 -0 -0 -0 1 1 1 -0 -0 -1 -2
-2 -2 -1 -5 -2 -4 -3 -6 -0 1 0 2 -1 -1 2 3 -3 -6 2 11 1 1 -1 -2 -2 -1 -2 -1 -3 2 1 2 -2 -2 -3 1 -0 -5 2 1 -1 -1 -1 -2 1 1 -1 -1 1 1 1 1 1 1
-2 -4 -0 -3 -3 -2 -3 -4 -2 -3 3 -0 4 0 1 5 1 2 -6 -3 -1 -2 -2 -2 -2 -1 -1 -2 -2 2 1 -1 0 -0 -1 -3 1 -1 4 -6 -2 -0 0 -1 -2 -1 -1 1 1 1 0 -1 1 3
-1 -3 -2 -1 -4 -2 -1 -4 -2 -5 1 -1 2 2 5 7 2 3 -3 1 -2 -2 1 2 -1 -0 -0 -2 -1 1 0 -0 -1 0 0 -1 3 4 -3 1 -3 1 1 -0 1 -0 4 1 1 1 -0 -0 4 2
-1 -2 -3 -0 -2 -2 -1 -2 -3 -1 -3 -2 4 7 4 4 8 1 0 -2 -2 -3 -0 0 0 -1 -1 -2 -1 -1 1 1 1 -0 -2 -1 2 -1 2 1 2 0 -1 2 3 3 5 -1 1 -0 3 2 -0 1
-1 -3 -3 -2 -1 -4 -3 -1 -3 -2 -2 -2 -1 1 14 9 1 -3 -9 -3 -3 4 4 6 1 -1 -0 -1 -2 0 1 1 1 0 0 -0 -3 -0 5 -0 -1 0 1 1 1 1 4 4 5 1 0 1 1 0
-0 -3 -1 -2 1 -3 -4 0 -4 -2 -1 -3 -9 16 11 8 9 -1 -5 -7 2 -4 2 7 -1 -3 1 -2 -4 -1 -1 -1 1 0 0 -2 1 -2 -0 1 3 1 1 2 1 2 3 2 1 1 2 -0 -0 1
-1 -3 -2 -2 1 1 -5 -2 -3 -3 2 -3 -4 6 10 4 -1 -1 -8 -0 -3 11 9 9 8 -3 0 0 -1 -0 -1 -1 -1 2 1 -3 1 1 0 0 1 0 1 2 1 1 1 2 2 0 0 -0 0 1
0 -3 -2 -3 -1 2 -1 -6 1 -5 3 -2 -8 3 8 2 -9 -8 -4 2 5 5 -5 -1 -1 -1 -1 -3 -3 -3 -0 -1 -0 -0 0 -1 2 2 1 1 1 1 2 2 3 1 -1 -1 -1 0 1 1 1 0
-1 -2 -2 -2 -0 -2 -1 -6 -1 -2 -1 1 -3 -9 1 -3 -1 -2 -1 -1 10 4 1 -0 -1 -1 -3 -7 -5 -3 -2 -4 3 -3 -2 1 -1 -0 0 1 -0 -1 -1 -0 1 0 1 0 -0 -1 1 -1 1 -0
-1 -3 -3 -1 -0 -1 -1 -4 -5 -2 -3 -2 2 -2 -4 -3 -4 -3 1 2 5 1 -2 -5 -1 -0 -0 -6 0 -2 -2 8 3 -1 0 -2 -1 -1 -2 0 1 1 1 0 0 0 0 -0 0 2 2 1 2 1
0 -1 -3 -2 -1 -2 -2 -2 -5 -3 -2 -2 -1 -2 -1 1 -3 -0 2 4 3 -1 -2 -7 -3 6 -4 -8 2 4 14 18 -5 -6 -5 -0 0 0 1 0 -0 0 0 -0 1 1 1 3 2 1 1 2 2 1
0 -3 -1 -2 -0 0 -0 -5 -4 -4 -3 -5 -1 2 -1 4 -1 -0 -2 1 3 -0 -0 -11 2 -4 -6 2 12 4 -3 -2 -7 -7 -5 2 1 -1 -0 1 0 -0 -1 -0 1 1 0 1 1 1 1 1 0 -0
-2 -2 -2 -1 -2 -4 -3 4 -3 -2 -2 -4 -4 -2 -0 -0 -1 3 2 1 -1 3 1 -4 -8 -9 -2 8 8 -1 -2 -2 -3 -3 -1 0 1 1 -1 -1 -0 1 1 1 0 0 1 2 1 1 0 0 0 0
-2 -1 -1 -1 -1 -4 -0 -0 -2 -2 -1 -2 -3 -4 -2 -1 0 1 5 6 2 4 -2 -18 -10 -2 4 4 4 -2 -1 1 0 -2 -2 0 3 1 -0 0 -0 1 2 1 1 1 1 1 1 1 0 -0 0 0
-3 -0 -2 2 2 -7 -4 -2 -2 -4 -1 0 -0 0 -4 -2 -2 -0 6 6 11 1 -2 -11 1 1 3 2 6 -1 -1 3 -1 -1 -0 -2 2 1 2 2 0 1 2 1 2 2 1 1 1 -0 1 2 0 -0
-3 -2 -1 -3 -1 -3 1 -4 -5 -5 0 -1 -2 -2 0 -2 -1 -2 -3 6 6 9 5 -7 2 3 3 7 3 -2 -0 -1 -3 -3 -2 1 3 1 2 1 -1 -1 0 1 3 2 1 1 1 2 1 1 1 1
-2 -4 -0 0 -2 -3 1 -2 -4 -3 -4 -1 -0 -1 -2 -3 -0 1 -1 3 3 7 16 9 -2 4 5 4 6 0 -0 -3 -3 0 2 1 -1 2 3 2 0 0 -1 0 2 2 2 2 1 1 0 0 0 1
-1 -1 -2 -1 1 -3 -2 -3 -3 -5 -1 -3 -1 -4 -1 -2 -2 -3 1 4 3 5 2 12 10 4 2 3 4 4 3 3 -0 -1 -0 3 3 4 1 0 1 1 -0 0 2 3 3 2 1 1 1 -0 0 0
-3 -4 -2 0 -1 -4 -3 -1 -3 -4 -3 -3 -0 -5 -4 -3 -1 -0 2 4 -0 1 7 6 -3 9 5 1 4 2 -1 -2 -1 -3 -3 2 -0 1 1 2 1 -1 1 2 4 5 4 4 4 3 -0 -2 0 -1
-3 -0 -0 -0 -1 -3 -2 -3 -2 -2 -3 -3 -5 -3 -1 -2 -3 -2 4 -1 -0 -1 -3 6 10 1 3 3 1 3 1 -2 -2 -2 -0 0 1 0 1 -0 1 1 2 3 3 3 3 3 2 9 10 1 2 1
3 -3 -1 -1 -2 -4 -0 -2 -3 -2 -2 -1 -2 -2 -2 -3 -1 -1 -1 -0 1 0 1 -1 4 8 5 0 6 5 5 2 1 -1 -0 -1 -2 -1 -1 1 4 4 4 1 3 3 1 9 13 -1 -0 1 2 1
-2 -2 -2 -0 -3 -2 -2 -4 -1 -2 -2 -3 -4 -2 -2 -5 -0 -2 -1 -1 0 -0 0 3 -1 -0 5 4 5 4 10 4 -1 -0 -6 -1 -1 -2 -2 -3 -0 2 -1 1 1 5 10 3 -0 1 1 1 1 1
-1 -2 3 0 -2 -1 -2 -3 -2 -2 -2 -2 0 -2 -3 -2 -3 -1 -2 -1 -1 -0 1 0 2 -1 -1 4 3 10 11 1 -1 -4 -2 -0 0 2 4 4 5 1 3 5 7 6 4 3 1 -0 -0 1 1 0
-2 -2 1 -1 -1 -3 -2 -3 -2 -2 -2 -1 -1 -2 -2 -4 -3 -3 -2 -1 -1 -1 -1 1 0 1 -1 -4 -1 1 0 4 12 2 1 4 5 5 6 3 4 12 9 2 9 3 -1 -1 1 1 1 1 0 -0
-1 -2 -2 -3 -1 -3 -3 -2 -1 -1 -2 -0 -2 -3 -1 -1 -3 -4 -2 -1 -1 -0 1 1 -2 1 4 -2 2 5 7 9 10 3 1 2 2 3 6 7 4 5 8 2 -4 1 3 2 2 1 2 2 2 1
-3 -2 -1 -1 -3 -5 -3 -2 -0 -1 -2 -1 -1 -2 -1 -2 -5 -3 -3 -2 -0 -1 1 0 1 0 5 4 -2 8 6 8 13 5 5 11 11 10 6 2 -1 -2 -0 2 2 3 3 1 1 1 1 2 2 1
-1 -1 -2 -3 -3 -4 -3 -1 -1 -0 -3 -1 -1 -2 -0 -1 -3 -3 -2 -2 -2 1 1 -1 2 4 6 9 5 3 5 7 10 10 6 2 1 3 4 6 4 5 5 3 2 2 2 2 2 1 1 0 -1 -4
Height
5571 5560 5550 5537 5526 5514 5502 5489 5477 5471 5472 5477 5482 5486 5490 5495 5499 5503 5507 5511 5515 5519 5524 5528 5531 5534 5539 5543 5546 5549 5550 5551 5553 5556 5558 5560 5564 5568 5571 5572 5572 5575 5574 5574 5573 5573 5575 5575 5575 5576 5577 5579 5581 5583
5567 5556 5546 5534 5522 5510 5498 5485 5470 5464 5465 5470 5477 5483 5488 5492 5496 5501 5507 5511 5515 5519 5523 5526 5529 5533 5537 5541 5544 5546 5548 5548 5550 5552 5554 5555 5561 5564 5567 5570 5570 5573 5575 5576 5576 5575 5574 5575 5577 5578 5578 5579 5580 5582
5563 5552 5541 5530 5519 5506 5494 5480 5464 5455 5455 5461 5469 5478 5484 5488 5492 5499 5505 5510 5515 5518 5522 5524 5528 5532 5535 5538 5540 5543 5545 5545 5547 5549 5550 5552 5555 5558 5563 5566 5568 5569 5572 5573 5575 5576 5575 5575 5576 5576 5577 5579 5581 5582
5558 5548 5537 5526 5515 5503 5490 5477 5462 5452 5451 5455 5463 5473 5479 5485 5491 5498 5504 5509 5513 5517 5519 5523 5526 5530 5534 5536 5538 5539 5541 5543 5544 5546 5547 5549 5553 5556 5559 5561 5565 5568 5570 5571 5573 5574 5575 5576 5576 5578 5578 5579 5580 5581
5553 5543 5532 5522 5511 5500 5487 5474 5462 5451 5447 5450 5458 5468 5476 5482 5489 5496 5502 5507 5510 5515 5518 5521 5525 5529 5532 5534 5536 5538 5539 5540 5540 5542 5545 5549 5552 5555 5556 5558 5562 5563 5565 5568 5571 5573 5575 5576 5577 5578 5580 5580 5581 5582
5548 5539 5528 5517 5506 5496 5483 5471 5460 5449 5442 5445 5453 5464 5473 5480 5487 5493 5499 5504 5508 5513 5517 5520 5524 5528 5531 5532 5534 5535 5536 5537 5539 5542 5545 5549 5551 5553 5554 5558 5559 5560 5563 5565 5568 5571 5573 5574 5575 5577 5578 5579 5580 5581
5543 5535 5525 5514 5502 5492 5478 5465 5453 5443 5436 5436 5445 5458 5469 5477 5484 5492 5498 5504 5507 5510 5515 5519 5522 5527 5529 5531 5532 5533 5534 5536 5537 5540 5543 5546 5548 5549 5554 5556 5556 5557 5560 5562 5565 5568 5570 5572 5573 5575 5576 5577 5578 5579
5538 5530 5521 5510 5500 5489 5475 5460 5446 5436 5428 5428 5437 5451 5464 5474 5482 5489 5495 5499 5503 5507 5512 5517 5522 5526 5528 5529 5530 5532 5533 5534 5536 5537 5540 5543 5545 5547 5551 5549 5551 5555 5558 5560 5562 5564 5566 5569 5570 5571 5573 5574 5575 5576
5534 5525 5516 5507 5497 5486 5473 5458 5442 5431 5424 5423 5430 5445 5460 5471 5478 5486 5492 5497 5501 5506 5509 5515 5519 5524 5526 5528 5529 5531 5531 5533 5535 5536 5538 5541 5542 5544 5545 5547 5549 5553 5556 5558 5560 5561 5562 5564 5564 5567 5569 5571 5572 5574
5529 5521 5512 5504 5495 5485 5473 5459 5442 5430 5423 5422 5429 5441 5455 5469 5477 5483 5489 5494 5499 5503 5508 5513 5517 5521 5525 5526 5528 5530 5530 5531 5532 5534 5535 5538 5540 5541 5543 5545 5547 5550 5553 5555 5556 5557 5559 5561 5564 5565 5567 5569 5570 5572
5524 5517 5509 5500 5492 5484 5473 5461 5446 5431 5424 5422 5427 5440 5457 5468 5475 5481 5486 5492 5497 5503 5507 5510 5513 5518 5522 5524 5526 5528 5528 5529 5531 5533 5534 5536 5538 5541 5542 5543 5546 5548 5551 5552 5554 5555 5557 5560 5562 5563 5565 5567 5569 5570
5519 5514 5506 5498 5490 5483 5475 5464 5451 5438 5430 5428 5433 5444 5457 5466 5473 5478 5483 5489 5495 5501 5505 5507 5509 5513 5517 5521 5524 5526 5526 5528 5529 5530 5532 5533 5536 5537 5539 5541 5543 5545 5547 5549 5551 5554 5556 5558 5560 5562 5563 5565 5566 5568
5513 5509 5502 5496 5489 5482 5475 5466 5457 5446 5439 5439 5443 5451 5457 5463 5469 5476 5481 5486 5493 5498 5500 5501 5505 5509 5514 5518 5521 5523 5524 5526 5526 5528 5529 5530 5533 5535 5537 5539 5540 5542 5545 5546 5548 5550 5553 5555 5557 5559 5560 5561 5562 5563
5507 5504 5498 5493 5487 5481 5474 5468 5462 5453 5447 5448 5450 5453 5459 5461 5467 5474 5479 5484 5491 5496 5497 5501 5502 5506 5509 5512 5515 5517 5520 5522 5525 5525 5525 5526 5530 5532 5534 5535 5537 5539 5541 5543 5545 5547 5549 5551 5553 5554 5555 5556 5556 5556
5501 5498 5493 5488 5485 5479 5473 5469 5464 5458 5452 5451 5453 5454 5457 5460 5465 5471 5476 5482 5487 5491 5494 5497 5499 5502 5505 5507 5511 5513 5516 5519 5521 5522 5522 5523 5524 5527 5529 5531 5534 5536 5537 5539 5541 5543 5544 5546 5548 5549 5549 5549 5549 5549
5493 5491 5487 5483 5480 5476 5471 5467 5463 5460 5456 5451 5450 5454 5457 5460 5464 5468 5473 5477 5481 5485 5488 5491 5494 5496 5499 5501 5505 5508 5512 5516 5517 5517 5517 5519 5520 5522 5524 5526 5528 5530 5533 5535 5536 5538 5539 5540 5541 5542 5543 5543 5543 5543
5485 5483 5481 5478 5475 5472 5467 5464 5461 5457 5455 5451 5447 5448 5451 5455 5459 5463 5467 5470 5474 5478 5482 5485 5489 5492 5493 5495 5500 5502 5508 5510 5509 5510 5511 5513 5516 5518 5520 5522 5523 5525 5527 5528 5530 5531 5533 5534 5535 5535 5536 5536 5536 5536
5477 5475 5473 5471 5469 5467 5462 5459 5457 5454 5451 5448 5444 5442 5441 5443 5448 5453 5458 5461 5465 5469 5473 5477 5481 5485 5488 5491 5495 5495 5496 5497 5500 5502 5504 5507 5510 5513 5515 5517 5518 5520 5521 5523 5524 5525 5527 5527 5528 5529 5529 5530 5530 5530
5469 5466 5464 5463 5461 5459 5456 5455 5452 5450 5446 5443 5440 5436 5435 5435 5438 5442 5446 5450 5453 5457 5462 5466 5470 5477 5481 5483 5486 5487 5489 5491 5494 5496 5498 5501 5503 5506 5509 5511 5512 5513 5515 5516 5517 5519 5520 5521 5522 5522 5523 5524 5524 5524
5459 5458 5456 5455 5453 5451 5448 5446 5444 5443 5440 5436 5433 5430 5426 5425 5426 5429 5432 5436 5440 5442 5446 5453 5463 5467 5471 5474 5478 5480 5482 5484 5486 5489 5491 5493 5496 5499 5501 5503 5505 5506 5508 5510 5511 5513 5513 5515 5515 5516 5517 5517 5518 5518
5449 5448 5448 5446 5444 5441 5438 5436 5434 5432 5430 5426 5423 5419 5416 5413 5411 5412 5417 5421 5425 5427 5433 5442 5450 5455 5460 5463 5468 5470 5474 5476 5478 5480 5482 5484 5488 5491 5493 5495 5496 5498 5500 5502 5504 5505 5507 5508 5509 5510 5511 5511 5511 5511
5440 5439 5438 5436 5434 5432 5430 5427 5424 5422 5419 5415 5411 5406 5403 5400 5396 5395 5397 5402 5408 5414 5420 5425 5432 5439 5445 5451 5455 5459 5463 5466 5469 5471 5473 5476 5480 5482 5485 5486 5488 5490 5492 5494 5496 5497 5499 5500 5501 5502 5503 5504 5505 5505
5430 5430 5429 5427 5425 5422 5421 5417 5414 5411 5407 5403 5398 5393 5388 5384 5381 5379 5378 5381 5388 5397 5403 5408 5414 5421 5428 5435 5441 5446 5451 5456 5459 5462 5465 5468 5471 5474 5476 5477 5479 5482 5484 5486 5488 5489 5491 5493 5494 5495 5496 5497 5499 5499
5421 5420 5418 5417 5414 5412 5409 5406 5404 5400 5396 5389 5384 5377 5372 5368 5364 5362 5362 5364 5367 5375 5384 5390 5396 5403 5410 5418 5426 5433 5439 5444 5449 5453 5456 5460 5462 5464 5467 5469 5471 5473 5475 5477 5480 5482 5484 5485 5487 5488 5490 5491 5491 5490
5412 5411 5409 5406 5403 5401 5398 5396 5392 5387 5382 5376 5370 5362 5357 5352 5349 5348 5348 5349 5349 5353 5363 5371 5379 5386 5394 5401 5410 5417 5424 5430 5437 5442 5446 5450 5452 5455 5458 5461 5463 5465 5468 5470 5472 5475 5477 5478 5480 5481 5482 5483 5483 5482
5401 5400 5399 5395 5392 5390 5388 5384 5380 5375 5368 5362 5356 5349 5344 5340 5337 5336 5336 5334 5334 5337 5344 5351 5361 5370 5379 5387 5395 5403 5410 5417 5424 5430 5435 5439 5443 5447 5450 5452 5455 5458 5460 5463 5465 5467 5469 5471 5472 5473 5474 5473 5472 5473
5391 5389 5387 5384 5382 5380 5377 5373 5367 5361 5355 5349 5343 5337 5332 5328 5327 5326 5324 5324 5324 5325 5328 5335 5342 5353 5362 5372 5381 5389 5397 5404 5411 5417 5423 5428 5433 5437 5440 5443 5446 5449 5451 5453 5456 5458 5460 5462 5463 5462 5463 5463 5463 5464
5381 5380 5378 5376 5373 5370 5366 5362 5356 5349 5343 5337 5331 5326 5323 5319 5318 5315 5313 5312 5312 5313 5315 5320 5326 5336 5347 5356 5366 5375 5383 5391 5398 5404 5410 5417 5422 5426 5430 5433 5436 5439 5441 5443 5446 5449 5450 5450 5452 5453 5454 5455 5456 5456
5371 5370 5369 5367 5363 5360 5356 5351 5345 5338 5331 5325 5321 5318 5315 5311 5308 5305 5302 5301 5301 5302 5304 5309 5315 5321 5331 5342 5352 5361 5369 5377 5386 5393 5400 5406 5411 5415 5419 5423 5426 5428 5431 5434 5436 5438 5439 5441 5443 5444 5445 5446 5447 5447
5363 5361 5359 5356 5353 5350 5346 5340 5334 5327 5321 5316 5313 5311 5308 5303 5299 5295 5292 5290 5290 5292 5294 5299 5305 5311 5319 5330 5338 5348 5358 5366 5373 5380 5388 5394 5399 5403 5407 5410 5414 5417 5420 5422 5425 5427 5429 5431 5432 5434 5436 5437 5438 5439
5353 5351 5349 5346 5343 5339 5334 5329 5323 5317 5313 5309 5306 5305 5302 5298 5293 5288 5284 5283 5282 5284 5288 5293 5298 5304 5310 5319 5329 5337 5346 5354 5361 5368 5375 5380 5385 5390 5395 5398 5402 5406 5409 5412 5414 5416 5419 5421 5423 5425 5427 5428 5429 5430
5343 5341 5339 5336 5333 5329 5323 5317 5312 5308 5305 5302 5301 5299 5297 5293 5288 5283 5279 5278 5278 5280 5284 5288 5293 5298 5301 5309 5319 5327 5335 5343 5350 5357 5364 5368 5372 5376 5381 5386 5390 5393 5397 5400 5404 5407 5409 5412 5415 5417 5419 5420 5421 5421
5332 5330 5328 5326 5322 5317 5312 5308 5304 5301 5298 5297 5296 5294 5292 5289 5284 5280 5276 5275 5277 5279 5282 5285 5289 5292 5296 5301 5309 5318 5325 5332 5339 5344 5349 5355 5360 5366 5372 5376 5380 5384 5387 5391 5395 5398 5401 5404 5407 5409 5410 5411 5412 5413